CAPE
1 1 1 0 1 2 0 0 0 0 1 0 0 1 2 2 0 0 1 0 0 0 0 0 0 0 0 0 0 0 0 0 0 0 0 0 0 0 0 0 0 0 0 0 0 0 0 0 0 0 1 6 590 832
1 1 2 2 1 1 0 0 0 0 0 0 0 0 3 1 1 2 0 0 0 0 0 0 0 0 0 0 0 0 0 0 0 0 0 0 0 0 0 0 0 0 0 0 0 0 0 0 0 0 2 241 376 607
0 1 0 2 1 1 0 0 0 0 0 0 0 0 2 2 1 1 0 0 0 0 0 0 0 0 0 0 0 0 0 0 0 0 0 0 0 0 0 0 0 0 0 0 0 0 0 0 0 0 0 55 118 731
1 0 1 0 0 1 0 0 0 0 0 0 0 0 0 2 1 2 1 0 0 0 0 0 0 0 0 0 0 0 0 0 0 0 0 0 0 0 0 0 0 0 0 0 0 0 0 0 0 0 0 0 84 699
0 0 0 0 0 1 0 0 0 0 0 0 0 0 0 1 0 2 2 0 0 0 0 0 0 0 0 0 0 0 0 0 0 0 0 0 0 0 0 0 0 0 0 0 0 0 0 0 0 0 0 9 381 709
0 0 0 0 1 0 0 0 0 0 0 0 0 0 0 0 6 0 0 1 0 2 0 0 0 0 0 0 0 0 0 0 0 0 0 0 0 0 0 0 0 0 0 0 0 0 0 0 0 0 0 192 729 911
0 0 0 0 1 0 0 0 0 0 0 0 0 0 0 0 2 2 0 0 1 0 0 0 0 0 0 0 0 0 0 0 0 0 0 0 0 0 0 0 0 0 0 0 0 0 0 0 0 0 0 0 547 647
0 0 0 0 0 0 0 0 0 0 0 0 0 0 0 1 1 1 0 0 0 0 0 1 0 0 0 0 0 0 0 0 0 0 0 0 0 0 0 0 0 0 0 0 0 0 0 0 0 0 0 0 20 520
0 0 0 0 1 0 0 0 0 0 0 0 0 0 0 0 0 0 0 0 0 0 3 0 0 0 0 0 0 0 0 0 0 0 0 0 0 0 0 0 0 0 0 0 0 0 0 0 0 0 0 42 196 330
0 0 1 1 1 0 0 0 0 0 0 0 0 0 0 0 0 0 0 0 0 0 0 6 0 0 0 0 0 0 0 0 0 0 0 0 0 0 0 0 0 0 0 0 0 0 0 0 0 0 0 29 451 411
1 2 1 1 1 0 0 0 0 0 0 0 0 0 0 0 0 0 0 0 0 0 2 3 2 7 0 0 1 0 9 0 0 0 0 0 0 0 0 0 0 0 0 0 0 0 0 0 0 0 0 0 75 251
2 1 1 1 0 0 0 0 0 0 0 0 0 0 0 11 3 0 0 0 0 0 0 0 52 1 0 0 3 0 9 0 1 0 0 0 0 0 0 0 0 0 0 0 0 0 0 0 0 0 0 0 0 76
2 2 1 0 0 0 0 0 0 0 0 1 0 22 9 3 9 0 0 0 0 0 0 0 14 44 0 0 1 18 3 3 0 0 0 0 0 0 0 0 0 0 0 0 0 0 0 0 0 0 0 0 0 24
0 0 0 0 0 0 0 0 0 0 0 5 6 0 0 0 0 0 0 0 0 0 0 0 0 0 12 23 4 2 1 0 0 0 0 0 0 0 0 0 0 0 0 0 0 0 0 0 0 0 0 0 0 8
0 0 0 0 0 0 0 0 0 0 0 3 8 2 0 0 0 0 0 0 0 0 3 0 0 0 0 29 8 6 4 7 1 0 0 0 0 0 0 0 0 0 0 0 0 0 0 0 0 0 0 0 0 13
0 0 0 0 0 0 0 0 0 0 0 7 6 0 0 0 0 0 0 0 0 0 13 16 4 0 3 10 11 7 2 0 0 0 0 0 0 0 0 0 0 0 0 0 0 0 0 0 0 0 0 0 0 0
0 0 0 0 0 0 0 0 0 0 0 2 0 0 0 0 0 0 0 0 0 3 6 18 11 27 27 4 0 0 0 0 0 2 0 0 0 0 0 0 0 0 0 0 0 0 0 0 0 0 0 0 0 0
0 4 0 0 0 0 0 0 2 1 0 0 0 0 0 0 0 3 5 3 2 4 20 15 17 12 9 6 17 3 44 39 46 36 54 22 55 22 0 0 0 0 0 0 0 0 0 0 0 0 0 0 0 0
2 0 0 0 0 1 1 0 0 3 1 1 0 0 0 0 0 0 0 0 1 6 6 24 16 3 0 4 36 23 21 34 16 17 28 64 41 0 0 0 0 0 0 0 0 0 0 0 0 0 0 0 0 0
0 0 0 0 2 10 17 6 3 1 0 0 0 0 0 0 0 0 0 0 0 0 2 1 4 9 13 5 8 18 37 33 20 9 46 129 27 0 0 0 0 0 0 0 0 0 0 0 0 0 0 0 0 0
0 0 0 0 0 1 0 0 5 1 0 0 0 0 0 0 0 0 0 0 0 0 0 0 0 0 13 14 32 42 55 46 8 20 22 64 1 0 0 0 0 0 0 0 0 0 0 0 0 0 0 0 0 0
1 0 0 0 0 2 2 0 0 0 1 2 1 0 1 1 0 0 0 0 0 0 0 0 0 0 6 0 2 10 33 19 0 0 18 16 17 4 5 2 5 17 0 0 0 0 0 0 0 0 0 0 0 0
2 0 5 0 2 2 0 1 3 5 2 3 10 7 4 5 0 0 0 0 0 0 0 0 0 0 0 0 1 0 6 4 3 4 9 18 36 28 2 0 0 2 0 0 0 0 0 0 0 0 0 0 0 0
0 12 7 5 0 0 0 2 0 0 0 0 1 0 8 11 0 0 0 0 0 0 0 1 0 0 0 0 0 0 0 0 0 2 0 0 7 35 14 10 0 0 0 0 0 0 0 0 0 0 0 0 0 0
6 1 3 3 5 1 1 3 2 0 6 9 0 1 7 14 20 17 14 17 1 0 7 19 0 0 0 0 0 0 0 0 0 1 0 0 5 0 0 0 0 0 0 0 0 0 0 0 0 0 0 0 0 0
0 0 0 7 13 5 6 7 15 9 6 7 8 11 2 1 4 8 1 14 6 0 1 13 24 10 1 2 1 11 9 0 0 2 6 10 10 12 2 0 0 0 0 0 0 0 0 0 0 0 0 0 0 0
0 1 0 0 0 6 1 1 3 3 2 7 7 24 0 0 2 8 15 6 0 21 7 11 14 36 64 64 10 27 15 5 42 55 24 27 38 33 11 9 2 0 0 0 0 0 0 0 0 0 0 0 0 0
1 0 0 7 0 0 0 2 2 7 7 3 4 2 9 1 13 43 45 19 6 13 24 15 30 25 69 55 45 23 17 8 5 0 0 0 0 0 0 0 0 0 0 0 0 0 0 0 0 0 0 0 0 0
0 0 0 0 0 0 0 2 5 21 18 20 9 1 7 7 29 58 41 0 5 13 9 17 14 25 23 19 2 0 5 12 21 14 0 1 5 0 0 0 0 0 0 0 0 0 0 0 0 1 1 0 0 0
0 0 0 0 0 1 4 5 2 3 1 22 27 20 32 30 7 0 15 19 39 49 39 36 35 29 19 12 7 2 0 0 3 10 0 28 9 0 0 0 0 2 7 8 1 0 0 0 0 0 0 0 0 0
0 0 0 1 4 0 0 11 13 13 22 28 33 22 23 20 10 5 32 22 15 11 37 45 39 58 57 51 58 64 63 8 0 0 20 53 54 43 28 25 16 10 9 3 5 2 0 0 0 0 0 0 0 0
0 0 4 3 5 29 22 0 10 18 17 14 13 18 13 23 18 33 22 42 53 30 1 22 24 14 0 0 0 0 1 1 0 0 15 78 75 89 43 34 58 68 69 46 44 41 53 69 22 0 0 5 16 35
0 0 6 8 0 9 9 8 4 13 23 32 31 42 40 35 22 21 0 0 36 52 69 44 22 10 5 0 0 0 0 0 0 0 0 4 23 33 51 56 54 64 71 68 59 60 60 59 48 37 42 49 24 30
CIN
0 0 0 0 0 0 0 0 0 0 0 0 0 0 0 -2 -1 0 0 0 0 0 0 0 0 0 0 0 0 0 0 0 0 0 0 0 0 0 0 0 0 0 0 0 0 0 0 0 0 0 -7 -105 -105 -85
0 0 0 0 0 0 0 0 0 0 0 0 0 0 -3 -1 -4 -1 0 0 0 0 0 0 0 0 0 0 0 0 0 0 0 0 0 0 0 0 0 0 0 0 0 0 0 0 0 0 0 0 -13 -131 -121 -86
0 0 0 0 0 0 0 0 0 0 0 0 0 0 -3 -3 -3 -1 0 0 0 0 0 0 0 0 0 0 0 0 0 0 0 0 0 0 0 0 0 0 0 0 0 0 0 0 0 0 0 0 0 -149 -140 -103
0 0 0 0 0 0 0 0 0 0 0 0 0 0 0 -5 -5 -2 0 0 0 0 0 0 0 0 0 0 0 0 0 0 0 0 0 0 0 0 0 0 0 0 0 0 0 0 0 0 0 0 0 0 -130 -105
0 0 0 -1 0 0 0 0 0 0 0 0 0 0 0 -7 -2 -1 -1 -2 0 0 0 0 0 0 0 0 0 0 0 0 0 0 0 0 0 0 0 0 0 0 0 0 0 0 0 0 0 0 0 -116 -70 -74
0 0 0 0 -1 0 0 0 0 0 0 0 0 0 0 0 0 0 0 0 0 0 0 0 0 0 0 0 0 0 0 0 0 0 0 0 0 0 0 0 0 0 0 0 0 0 0 0 0 0 0 -59 -64 -57
0 0 0 0 0 -1 0 0 0 0 0 0 0 0 0 0 0 0 0 0 0 0 0 0 0 0 0 0 0 0 0 0 0 0 0 0 0 0 0 0 0 0 0 0 0 0 0 0 0 0 0 0 -81 -78
0 0 -2 0 0 -1 0 0 0 0 0 0 0 0 0 0 0 0 0 0 0 0 0 -8 0 0 0 0 0 0 0 0 0 0 0 0 0 0 0 0 0 0 0 0 0 0 0 0 0 0 0 0 -96 -46
0 0 0 0 0 -1 0 0 0 0 0 0 0 0 0 0 0 0 0 0 0 0 -46 0 0 0 0 0 0 0 0 0 0 0 0 0 0 0 0 0 0 0 0 0 0 0 0 0 0 0 0 -154 -68 -60
0 -2 -1 0 0 -1 0 0 0 0 0 0 0 0 0 0 0 0 0 0 0 0 -1 -53 0 0 0 0 0 0 0 0 0 0 0 0 0 0 0 0 0 0 0 0 0 0 0 0 0 0 0 -141 -29 -44
-4 -2 -2 -1 -1 0 0 0 0 0 0 0 0 0 0 0 0 0 0 0 -6 0 -45 -26 -41 -45 0 0 -23 -4 -46 0 0 0 0 0 0 0 0 0 0 0 0 0 0 0 0 0 0 0 0 0 -58 -40
-5 -3 -2 -1 -2 0 0 0 0 0 0 0 0 0 -4 -63 -37 0 0 0 0 0 0 0 -31 -25 0 0 -17 0 -32 0 -9 0 0 0 0 0 0 0 0 0 0 0 0 0 0 0 0 0 0 0 0 -67
-9 -6 -3 0 0 0 0 0 0 0 0 0 0 -55 -27 -23 -6 -1 0 0 0 0 0 0 -40 -49 0 -28 -3 -17 -10 -20 0 0 0 0 0 0 0 0 0 0 0 0 0 0 0 0 0 0 0 0 0 -94
0 0 0 0 0 0 0 0 0 0 0 -34 -13 0 0 -2 0 0 0 0 0 0 0 0 0 0 -52 -9 -12 -9 -43 0 0 0 0 0 0 0 0 0 0 0 0 0 0 0 0 0 0 0 0 0 0 -53
0 0 0 0 0 0 0 0 0 0 0 -34 -26 -10 -2 0 0 0 0 0 0 0 -97 -13 0 0 0 -18 -19 -19 -22 -13 -13 0 0 0 0 0 0 0 0 0 0 0 0 0 0 0 0 0 0 0 0 -106
0 0 0 0 0 0 0 0 0 0 0 -38 -28 0 0 0 0 0 0 0 0 0 -102 -77 -26 0 -8 -19 -17 -4 0 0 0 0 0 0 0 0 0 0 0 0 0 0 0 0 0 0 0 0 0 0 0 0
0 0 0 0 0 0 0 0 0 0 0 -17 0 0 0 0 0 0 0 0 0 -71 -12 -15 -5 -4 -55 -7 0 -1 0 0 0 -82 0 0 0 0 0 0 0 0 0 0 0 0 0 0 0 0 0 0 0 0
0 0 0 0 0 0 0 0 -21 -25 0 0 0 0 0 0 0 -46 -50 -54 -34 -46 -50 -10 -19 -6 -1 -5 -6 -9 -67 -121 -160 -181 -167 -190 -174 -185 0 0 0 0 0 0 0 0 0 0 0 0 0 0 0 0
0 0 0 0 0 -8 -11 -8 -6 -17 -12 -1 0 0 0 0 0 0 0 0 -29 -43 -50 -26 -7 -4 0 -26 -19 -35 -65 -97 -106 -139 -190 -261 -268 0 0 0 0 0 0 0 0 0 0 0 0 0 0 0 0 0
0 0 0 0 -30 -13 -5 -9 -25 -8 0 0 0 0 0 0 0 0 0 0 -22 0 -1 -5 -9 -15 -23 -23 -35 -36 -71 -96 -115 -84 -98 -183 -310 0 0 0 0 0 0 0 0 0 0 0 0 0 0 0 0 0
0 0 0 0 -10 -27 -1 -4 -3 -9 0 0 0 0 0 0 0 0 0 0 0 0 0 0 0 0 -54 -57 -63 -64 -73 -76 -49 -107 -158 -164 -15 0 0 0 0 0 0 0 0 0 0 0 0 0 0 0 0 0
0 0 0 0 0 -2 -1 0 0 -5 -1 -3 -1 0 -1 -1 -4 0 0 0 0 0 0 0 0 0 -34 -13 -42 -52 -40 -51 -6 0 -147 -169 -195 -227 -138 -53 -42 -150 0 0 -49 0 0 0 0 0 0 0 0 0
-1 -3 -1 -1 -1 -1 0 -4 0 -2 -1 -2 -2 -9 -25 -17 -22 0 0 0 0 0 0 0 0 0 0 0 -26 0 -45 -25 -38 -51 -96 -124 -102 -109 -96 0 0 -138 0 0 0 0 0 0 0 0 0 0 0 0
0 -2 -1 -3 -1 0 -2 0 0 0 0 -16 -6 -9 -9 -19 0 0 0 0 0 0 0 -57 0 0 0 0 0 0 0 0 0 -45 -63 0 -89 -79 -116 -125 0 0 -28 0 0 0 0 0 0 0 0 0 0 0
-1 -3 -1 -1 -3 0 -1 0 -8 -5 -20 -11 0 -13 -15 -28 -6 -7 -8 -14 -29 -3 -55 -82 -8 0 0 0 0 0 0 0 0 -79 0 -5 -117 -8 0 0 0 0 0 0 0 0 0 0 0 0 0 0 0 0
0 0 -1 -1 -3 -8 -7 -2 -9 -5 -6 -7 -7 -19 -34 -3 -5 -5 -12 -9 -18 0 -43 -51 -62 -83 -39 -69 -31 -85 -92 0 0 -35 -82 -135 -129 -104 -103 0 0 0 0 0 0 0 0 0 0 0 0 0 0 0
0 0 -3 0 0 -2 -2 -5 -9 -4 -2 -2 -9 -2 -6 0 -4 -7 -23 -20 -9 -41 -82 -97 -85 -70 -59 -96 -147 -151 -171 -163 -130 -103 -143 -138 -105 -96 -78 -113 -59 0 0 0 0 0 0 0 0 0 0 0 0 0
0 -1 0 -7 0 0 0 -2 -1 -2 -1 -2 -23 0 0 -1 -4 -16 -33 -58 -73 -75 -59 -75 -71 -86 -98 -128 -136 -138 -165 -171 -176 -20 0 0 0 0 -26 -7 0 0 0 0 0 0 0 0 0 0 0 0 0 0
0 0 0 0 -3 0 -2 -7 -1 -2 -3 0 -1 -5 -2 -21 -47 -54 -54 -52 -146 -90 -63 -43 -50 -77 -90 -106 -116 -15 -104 -67 -39 -31 0 -3 -27 0 0 0 0 0 0 0 0 0 0 0 0 -8 -11 0 0 0
0 0 0 0 0 -1 -5 -10 -6 -21 -12 -6 -22 -32 -25 -35 -50 0 -103 -69 -30 -25 -38 -44 -50 -36 -39 -50 -56 -32 0 0 -6 -7 0 -10 -9 0 0 0 0 -36 -73 -68 -37 0 0 0 0 0 0 0 0 0
0 0 0 -6 -2 -1 0 0 -1 -2 -23 -26 -44 -44 -36 -46 -31 -64 -69 -64 -50 -44 -25 -19 -24 -22 -15 -15 -17 -11 -10 -28 0 0 -34 -30 -38 -46 -34 -25 -39 -30 -46 -34 -32 -21 0 0 0 0 0 0 0 0
0 0 -2 -1 -1 -3 -5 0 -21 -19 -38 -43 -43 -62 -40 -14 -9 -20 -72 -59 -20 -11 -1 -20 -11 -15 0 0 0 0 -1 -2 0 0 -65 -52 -51 -51 -63 -53 -66 -52 -45 -46 -44 -43 -45 -34 -30 0 0 -34 -34 -29
0 0 -4 -2 -1 -7 -18 -17 -11 -15 -37 -35 -44 -47 -35 -21 -8 -37 -20 0 -56 -31 -25 -39 -61 -63 -76 0 0 0 0 0 0 0 0 -47 -69 -63 -57 -56 -70 -61 -51 -35 -32 -33 -40 -35 -33 -29 -32 -29 -30 -24
Wind_Speed
24 22 23 25 23 24 24 25 26 27 28 28 27 27 26 23 20 17 14 11 8 8 18 13 14 13 12 7 3 6 9 13 15 14 14 14 13 8 16 18 17 17 16 17 16 16 18 13 13 13 15 14 11 9
22 21 21 22 22 23 23 25 26 27 28 27 27 27 26 23 19 15 15 12 11 8 15 18 28 31 25 26 13 8 14 10 12 14 15 14 15 11 9 20 17 21 20 19 15 16 14 13 14 14 14 15 12 11
18 20 20 20 22 23 25 25 26 27 28 27 27 27 27 24 18 13 14 13 11 15 18 18 18 15 13 16 20 12 14 13 16 17 15 14 18 20 20 20 16 18 20 17 16 11 17 15 12 10 11 12 11 9
17 20 20 20 21 24 25 25 26 27 27 27 27 27 27 25 19 13 12 12 13 16 16 12 16 17 16 14 14 17 12 13 14 18 18 19 22 22 23 22 22 18 8 15 22 20 12 12 8 8 9 10 9 7
19 19 20 22 22 23 25 26 27 28 28 27 28 28 27 25 21 16 15 11 9 13 17 17 21 16 15 14 10 11 9 14 17 18 20 20 18 17 19 21 23 16 9 13 19 8 8 10 7 7 7 8 8 6
19 20 20 24 24 25 25 26 27 28 27 27 28 28 27 24 17 16 17 11 3 6 17 18 17 17 15 12 11 13 16 17 19 20 20 20 19 18 19 24 26 14 13 6 10 9 9 10 10 8 9 11 9 9
20 19 20 23 24 24 25 26 27 28 28 28 28 28 26 21 14 14 16 13 5 6 14 19 15 16 15 14 16 16 17 19 21 21 23 21 19 20 22 23 21 5 8 5 8 9 8 8 10 9 10 11 13 13
19 18 21 22 23 24 25 26 27 28 27 27 27 26 21 18 17 20 17 3 2 10 14 16 16 12 14 16 18 17 16 19 20 21 21 21 19 22 23 21 10 11 2 3 9 7 9 11 11 10 11 11 12 15
23 21 22 24 23 25 26 26 27 27 27 26 26 18 16 15 13 16 12 6 2 12 13 15 17 16 13 15 15 15 15 16 20 22 22 19 21 22 21 18 9 2 5 6 7 8 11 13 14 13 11 11 13 15
19 18 16 21 21 24 24 24 25 26 26 22 15 16 17 13 8 8 10 9 13 14 14 15 18 17 12 15 15 14 15 15 19 21 17 23 29 30 29 22 19 6 1 2 7 11 11 12 13 13 14 15 15 15
18 18 17 18 19 22 23 22 23 23 15 15 16 17 15 13 9 11 12 12 11 16 15 22 19 18 15 15 17 18 17 16 21 20 20 22 24 24 26 34 26 16 6 9 10 13 12 11 12 12 13 13 14 14
18 17 17 17 18 21 21 21 20 18 16 17 17 17 14 10 12 14 14 14 13 15 18 20 24 18 15 15 15 16 19 19 22 15 20 23 21 21 22 23 23 13 5 1 2 5 8 8 9 10 11 12 11 10
18 18 17 17 19 20 20 19 19 19 19 14 14 13 13 13 16 14 13 15 16 18 19 18 20 19 15 17 17 17 19 23 18 20 25 25 22 23 21 20 16 14 12 8 5 2 3 5 7 7 8 8 8 6
17 18 18 20 22 23 22 21 19 17 15 14 14 15 17 15 16 17 17 18 19 19 18 17 17 17 18 16 16 18 19 18 24 23 27 25 25 27 21 17 12 9 9 7 5 3 2 3 4 5 5 5 5 4
18 18 20 22 21 21 21 19 17 15 15 15 15 17 17 20 20 20 21 21 19 20 19 16 14 14 14 17 19 18 19 21 21 22 26 29 28 25 21 16 12 9 7 6 5 3 3 4 4 3 3 4 4 4
17 19 17 19 17 16 14 12 14 15 17 18 17 20 20 20 22 22 20 19 16 19 17 17 15 14 17 19 19 22 27 28 23 23 28 26 24 22 19 17 12 8 6 4 4 5 5 5 4 4 4 4 4 4
17 16 16 14 14 12 11 13 13 16 18 21 23 23 25 23 21 19 18 18 17 17 16 16 16 17 16 20 23 24 25 20 22 23 24 22 21 19 15 12 9 8 6 5 5 6 6 7 6 4 4 4 4 4
14 14 14 14 14 13 13 14 16 17 22 23 24 24 22 23 26 25 19 16 17 18 19 20 18 19 21 20 22 21 19 20 20 21 23 24 23 20 15 9 7 7 6 6 6 5 5 5 3 2 3 3 3 4
14 16 16 14 14 13 13 17 20 20 22 24 24 24 23 23 20 22 23 20 19 17 21 19 19 20 22 23 25 21 23 27 28 29 29 29 29 27 23 14 10 8 6 6 4 4 5 4 4 3 2 1 3 3
17 18 17 15 16 17 19 19 18 21 21 19 19 19 19 21 22 18 23 20 19 18 18 17 19 18 17 18 21 23 23 24 28 29 32 34 30 27 22 14 10 8 7 8 9 9 9 8 8 6 5 3 4 4
16 17 15 18 18 18 19 18 18 17 19 20 21 21 20 21 10 5 7 13 16 16 26 23 24 21 18 23 24 25 26 26 27 24 27 28 22 18 11 8 7 7 9 10 13 13 11 10 10 9 6 5 6 5
18 18 17 17 17 18 19 20 18 17 16 16 16 17 17 15 16 15 12 19 28 30 15 7 12 25 34 32 26 24 23 20 21 18 15 11 10 13 11 9 8 10 12 12 14 14 13 12 9 8 7 6 4 4
17 18 17 17 18 18 18 18 18 17 16 15 15 16 16 16 12 14 11 19 16 7 8 14 20 21 30 31 29 30 27 25 25 21 18 14 16 19 15 13 12 14 15 13 13 12 12 10 8 8 7 4 1 1
16 17 17 18 20 18 18 18 18 18 17 16 16 15 15 15 14 17 17 18 18 14 18 21 22 27 29 30 31 29 25 17 23 23 20 15 16 19 19 18 14 12 11 10 9 9 10 9 7 5 3 2 1 1
17 18 17 19 20 18 19 19 19 18 17 17 16 16 15 15 16 16 16 15 14 16 15 16 20 25 27 27 26 27 28 25 2 1 19 17 17 17 17 14 11 11 7 5 6 7 7 5 5 5 5 4 3 4
18 19 19 20 19 19 18 18 17 17 17 17 16 16 15 14 14 15 15 18 18 18 17 15 13 16 24 21 18 18 15 8 4 9 17 13 10 11 9 6 5 8 10 6 3 4 5 6 7 8 7 6 5 5
17 19 21 21 19 18 18 19 18 18 17 16 15 15 14 12 15 14 12 14 14 13 13 8 11 12 13 10 11 9 9 7 9 9 10 8 9 10 8 7 1 2 2 2 4 9 11 10 9 8 7 7 6 5
18 18 21 19 20 20 18 18 18 17 15 15 16 16 16 16 13 10 11 12 14 13 13 14 16 15 7 10 13 14 13 12 11 10 10 12 11 11 9 9 5 4 5 9 13 11 9 9 8 8 7 6 6 6
19 19 19 20 20 19 19 18 17 16 15 12 10 15 15 15 12 11 12 11 17 20 23 22 17 15 12 11 13 15 15 15 14 13 12 12 12 13 12 11 12 11 11 11 9 7 6 6 5 6 4 3 4 3
19 20 19 18 17 17 17 18 19 17 15 15 18 14 12 8 9 10 8 21 20 20 21 21 22 21 20 19 18 17 17 18 18 18 17 16 16 16 15 14 13 11 10 9 8 8 8 8 9 9 8 6 5 5
19 18 17 15 16 16 15 14 13 16 19 18 11 10 5 5 7 7 18 22 23 23 23 23 22 21 20 20 19 19 19 19 18 18 18 18 19 19 18 16 14 13 12 11 10 10 10 11 11 10 9 9 8 7
19 18 14 13 16 15 17 13 17 18 14 11 9 9 6 10 13 15 20 20 22 23 23 24 23 22 22 22 22 22 21 20 19 19 18 17 17 17 17 16 16 15 14 13 12 12 11 11 11 11 11 10 8 7
18 16 15 16 17 15 16 16 13 10 5 6 7 8 9 11 14 18 19 20 21 21 22 21 21 21 22 22 21 22 23 23 23 22 21 20 19 17 16 14 14 13 13 13 13 12 10 10 10 10 9 9 9 7
Wind_Direction
315 320 316 309 312 307 308 307 308 313 310 306 309 314 322 330 338 338 340 332 333 317 289 307 303 300 293 296 79 11 5 350 1 33 86 102 105 25 278 260 266 278 287 290 298 296 293 303 305 305 305 313 309 312
315 320 325 318 311 305 305 302 298 298 296 300 304 311 316 326 336 339 327 335 317 311 294 289 257 245 266 255 288 314 307 336 353 9 123 118 134 89 58 198 281 267 273 280 296 296 322 322 319 323 328 318 317 315
323 321 326 322 312 303 299 299 300 300 297 299 306 312 312 318 332 337 323 324 325 308 296 283 280 286 295 270 267 293 292 295 293 271 295 173 176 177 174 188 256 259 232 269 273 248 167 144 144 74 39 6 359 357
324 324 324 326 317 300 297 298 299 300 299 298 303 307 309 314 324 330 318 315 304 304 291 291 282 274 282 280 275 272 289 295 295 275 278 280 228 218 212 222 197 246 50 293 252 211 155 153 110 50 33 19 16 19
317 320 319 319 318 306 298 297 297 299 300 301 302 305 305 310 318 317 305 301 296 293 291 280 274 274 280 277 288 292 298 291 284 286 281 284 286 288 284 268 204 157 140 152 191 106 74 30 79 87 50 49 34 36
312 312 318 311 310 302 296 295 296 298 300 301 302 304 303 306 321 314 302 306 219 292 294 279 282 273 276 286 285 290 287 287 282 284 284 287 284 279 283 266 259 163 154 95 349 8 8 12 22 57 50 40 62 88
309 311 316 310 307 304 296 291 293 296 297 297 299 302 300 302 310 292 297 320 283 281 291 286 285 274 269 273 280 286 288 285 283 282 281 282 283 278 280 282 287 111 139 88 4 29 50 61 11 50 60 63 78 95
308 313 312 311 306 300 292 286 288 292 293 294 297 300 304 303 297 279 300 230 290 282 292 290 286 280 265 272 273 286 290 282 282 279 282 276 279 274 281 292 313 309 354 31 127 59 41 99 87 77 70 84 93 104
301 306 305 299 300 289 285 286 287 291 293 293 290 308 308 301 293 298 314 58 141 291 296 288 277 277 268 274 279 283 293 291 280 275 276 276 271 272 283 298 328 104 140 130 106 82 80 98 107 113 105 95 110 116
305 308 315 300 299 290 284 289 288 290 291 293 305 298 293 306 328 325 325 311 294 289 297 288 274 276 274 267 272 282 292 294 285 276 282 271 264 265 264 280 287 322 131 75 113 119 102 96 105 108 119 120 116 117
307 308 311 307 303 293 287 295 289 291 314 307 296 291 306 305 315 309 306 301 304 298 288 268 270 271 279 267 268 276 284 292 282 276 272 272 275 274 265 237 257 272 122 132 131 133 119 98 110 112 112 115 119 118
305 307 304 305 302 291 288 290 296 297 297 292 294 300 308 313 312 302 303 308 306 293 287 268 257 271 274 277 274 276 280 287 278 276 270 268 282 280 273 268 255 260 269 316 316 104 104 78 88 112 119 118 117 118
303 300 300 299 294 286 283 285 286 282 285 303 306 303 309 309 298 301 297 297 291 288 282 275 264 255 270 269 275 278 280 278 290 272 267 264 277 282 284 276 270 254 261 278 297 339 61 57 53 80 110 112 100 91
299 295 291 280 270 263 265 270 276 286 293 296 293 292 292 304 301 292 291 288 283 280 287 285 275 264 262 265 278 279 282 287 276 273 266 267 276 276 283 282 276 247 251 269 285 319 12 39 63 65 71 100 99 60
289 285 274 262 259 257 260 268 280 284 286 290 292 292 292 285 287 288 282 285 285 280 279 286 288 277 275 269 273 280 282 277 273 285 276 271 277 275 278 278 272 248 245 270 293 322 349 3 12 17 28 58 41 40
282 276 279 267 276 279 288 297 293 290 289 289 293 286 289 291 284 280 282 288 293 285 282 282 285 284 277 279 275 270 272 275 285 282 279 270 274 277 275 273 260 238 238 271 303 324 338 350 1 10 28 53 58 62
276 284 285 291 292 296 307 305 306 298 291 283 280 280 278 284 290 287 288 289 298 290 279 281 277 280 292 281 276 274 277 282 288 283 270 268 280 285 281 278 250 241 243 273 309 325 333 345 1 32 60 73 60 36
290 291 289 290 288 302 312 311 301 298 281 282 284 283 285 283 273 277 289 296 298 293 286 281 286 277 277 285 288 281 289 289 287 279 273 267 278 283 290 275 244 233 242 278 301 323 337 348 7 59 53 76 37 12
281 275 279 293 299 309 309 287 268 290 275 278 282 285 290 290 293 284 280 284 291 297 290 285 283 281 278 282 278 291 288 276 275 273 272 269 273 274 283 283 251 243 247 269 297 326 335 340 339 348 339 338 324 341
277 275 276 283 270 267 267 260 280 271 274 304 312 309 307 297 291 288 277 280 283 280 285 287 278 287 292 293 293 290 287 286 279 278 273 269 271 275 279 267 241 245 262 283 294 307 315 323 320 313 308 295 296 300
269 257 263 247 252 265 258 261 273 294 288 285 251 240 234 257 146 113 302 280 276 279 268 275 276 285 295 291 292 289 285 279 277 274 272 266 269 265 269 254 244 256 274 286 295 302 310 316 321 311 305 293 293 295
238 237 246 254 253 249 239 235 232 246 233 214 232 212 203 160 161 145 126 164 212 210 277 242 202 210 242 259 285 286 286 282 274 280 309 307 274 258 255 257 262 273 289 299 307 299 306 315 325 320 312 305 293 278
241 237 243 244 240 240 238 226 228 226 221 211 185 153 122 127 194 60 303 229 182 150 176 190 198 200 215 264 270 265 263 264 257 263 273 289 273 262 270 275 277 289 296 302 309 312 317 328 330 326 324 317 295 200
240 235 237 239 227 236 231 228 236 221 223 218 197 170 152 183 70 210 237 259 246 190 204 204 201 210 225 231 223 235 254 268 245 240 265 286 280 277 275 280 295 304 305 312 322 329 339 337 342 348 17 53 70 82
231 231 237 226 221 226 222 223 214 212 219 212 209 201 152 136 185 211 236 216 219 243 209 186 178 182 184 201 224 224 228 254 219 281 291 289 287 289 295 302 306 301 315 337 333 349 358 19 23 34 41 43 52 83
227 227 225 217 219 217 218 218 223 225 231 222 190 201 181 164 214 226 245 282 270 253 246 235 264 194 198 236 280 289 291 322 327 304 291 304 314 310 315 321 307 294 313 320 356 36 71 63 69 78 79 67 64 56
224 218 216 219 219 226 228 227 220 201 182 187 223 219 157 120 166 194 204 278 274 264 253 312 342 282 270 351 12 1 357 13 335 334 327 356 348 325 326 343 299 344 5 350 87 105 102 94 81 80 71 57 58 66
215 215 203 209 210 213 223 224 203 190 174 187 210 188 167 171 187 240 257 161 171 179 183 184 197 229 323 26 44 46 29 22 18 10 357 346 339 334 347 1 25 56 67 101 116 111 101 93 74 49 44 54 65 83
202 205 206 205 207 208 205 209 221 232 245 179 205 222 206 182 181 212 176 176 140 113 79 52 45 56 36 20 27 39 37 30 31 28 27 28 27 28 32 52 71 78 87 95 95 83 72 54 44 28 47 41 46 65
195 193 193 197 207 218 222 223 226 230 208 184 168 199 211 260 224 217 211 61 42 37 42 50 64 71 65 58 53 46 37 35 41 50 47 47 53 58 60 67 69 70 71 69 59 34 33 30 21 31 42 49 51 61
192 188 191 209 230 229 219 220 207 197 184 184 209 212 270 267 341 343 33 55 56 56 57 60 61 60 58 58 63 61 55 56 53 42 47 57 66 71 73 73 73 71 69 72 62 50 54 48 44 49 57 58 57 63
187 184 195 204 187 185 177 183 170 170 188 205 218 215 254 13 14 14 42 53 59 57 63 67 68 71 73 74 78 72 76 87 103 95 82 66 73 76 71 65 67 67 68 62 55 58 60 53 57 59 57 58 63 74
192 182 172 186 180 185 181 181 193 208 280 310 318 338 326 345 9 43 54 79 93 99 94 76 73 69 73 72 60 66 69 73 71 70 72 73 88 93 90 91 93 90 84 75 75 68 66 61 58 60 60 53 47 61